Weather History for Rock Hill, SC

Change the Weather History Date:

Tuesday, February 5, 2013

  Actual Average Record
Temperature  
Mean Temperature 47 °F -  
Max Temperature 64 °F 52 °F 73 °F (2008)
Min Temperature 30 °F 31 °F 15 °F (2009)
Degree Days  
Heating Degree Days 18    
Moisture  
Dew Point 36 °F    
Average Humidity 63    
Maximum Humidity 86    
Minimum Humidity 42    
Precipitation  
Precipitation 0.00 in - - ()
Sea Level Pressure  
Sea Level Pressure 29.96 in    
Wind  
Wind Speed 9 mph (SW)    
Max Wind Speed 21 mph    
Max Gust Speed 28 mph    
Visibility 10 miles    
Events      
Averages and records for this station are not official NWS values.
T = Trace of Precipitation, MM = Missing Value Source: NWS Daily Summary

Daily Weather History Graph

Daily Weather History Graph

Search for Another Location

Airport:

Trip Planner

Search our weather history database for the weather conditions in past years. The results will help you decide how hot, cold, wet, or windy it might be!

Date:

Astronomy

Feb. 05, 2013 Rise Set
Actual Time 7:19 AM EST 5:57 PM EST
Civil Twilight 6:53 AM EST 6:23 PM EST
Nautical Twilight 6:23 AM EST 6:53 PM EST
Astronomical Twilight 5:53 AM EST 7:23 PM EST
Moon 2:55 AM EST (2/5) 1:17 PM EST (2/5)
Length of Visible Light 11h 30m
Length of Day
10h 37m
Waning Crescent, 27% of the Moon is Illuminated
Feb 5
Waning Crescent
Feb 10
New
Feb 17
First Quarter
Feb 25
Full
Mar 4
Last Quarter

Hourly Weather History & Observations

Time (EST) Temp. Windchill Dew Point Humidity Pressure Visibility Wind Dir Wind Speed Gust Speed Precip Events Conditions
12:54 AM 39.9 °F 34.5 °F 28.0 °F 63% 30.01 in 10.0 mi SW 8.1 mph - N/A   Clear
1:54 AM 36.0 °F 31.1 °F 27.0 °F 70% 29.99 in 10.0 mi SW 5.8 mph - N/A   Clear
2:54 AM 37.0 °F 31.0 °F 28.9 °F 73% 29.97 in 10.0 mi SW 8.1 mph - N/A   Mostly Cloudy
3:54 AM 39.0 °F 33.4 °F 28.0 °F 65% 29.96 in 10.0 mi SW 8.1 mph - N/A   Overcast
4:54 AM 36.0 °F 30.3 °F 28.0 °F 73% 29.96 in 10.0 mi SW 6.9 mph - N/A   Overcast
5:54 AM 30.9 °F 25.2 °F 27.0 °F 85% 29.98 in 10.0 mi SW 5.8 mph - N/A   Partly Cloudy
6:54 AM 35.1 °F 29.3 °F 28.9 °F 78% 29.98 in 10.0 mi SSW 6.9 mph - N/A   Overcast
7:54 AM 37.9 °F 32.7 °F 28.9 °F 70% 30.00 in 9.0 mi SW 6.9 mph - N/A   Scattered Clouds
8:54 AM 43.0 °F 37.2 °F 30.0 °F 60% 30.01 in 10.0 mi SW 10.4 mph - N/A   Clear
9:54 AM 50.0 °F - 30.0 °F 46% 30.00 in 10.0 mi WSW 16.1 mph 23.0 mph N/A   Mostly Cloudy
11:54 AM 55.0 °F - 32.0 °F 42% 29.98 in 10.0 mi WSW 13.8 mph 17.3 mph N/A   Mostly Cloudy
12:54 PM 59.0 °F - 36.0 °F 42% 29.94 in 10.0 mi West 12.7 mph 21.9 mph N/A   Mostly Cloudy
1:54 PM 62.1 °F - 39.9 °F 44% 29.91 in 10.0 mi WSW 18.4 mph 24.2 mph N/A   Scattered Clouds
2:54 PM 64.9 °F - 41.0 °F 42% 29.89 in 10.0 mi SW 20.7 mph 27.6 mph N/A   Partly Cloudy
3:54 PM 64.0 °F - 41.0 °F 43% 29.90 in 10.0 mi West 17.3 mph 26.5 mph N/A   Clear
4:54 PM 63.0 °F - 42.1 °F 46% 29.91 in 10.0 mi WSW 11.5 mph - N/A   Clear
5:54 PM 59.0 °F - 42.1 °F 53% 29.93 in 10.0 mi SW 11.5 mph - N/A   Clear
6:54 PM 53.1 °F - 43.0 °F 69% 29.95 in 10.0 mi SW 6.9 mph - N/A   Clear
7:54 PM 52.0 °F - 42.1 °F 69% 29.96 in 10.0 mi WSW 5.8 mph - N/A   Clear
8:54 PM 52.0 °F - 44.1 °F 74% 29.97 in 10.0 mi WSW 5.8 mph - N/A   Clear
9:54 PM 52.0 °F - 45.0 °F 77% 29.98 in 10.0 mi WSW 5.8 mph - N/A   Clear
10:54 PM 50.0 °F - 44.1 °F 80% 29.99 in 10.0 mi WSW 6.9 mph - N/A   Clear
11:54 PM 46.9 °F - 43.0 °F 86% 29.99 in 10.0 mi Calm Calm - N/A   Clear